Regional Weather Roundup
Issued by NWS

Home | Current Version | Previous Version | Graphics & Text | Print | Product List | Glossary On
Versions: 1 2 3 4 5 6 7 8 9 10 11 12 13 14 15 16 17 18 19 20 21 22 23 24 25 26 27 28 29 30 31 32 33 34 35 36 37 38 39 40 41 42 43 44 45 46 47 48 49 50
000
ASUS45 KSLC 272310
RWRUT

UTAH REGIONAL WEATHER ROUNDUP
NATIONAL WEATHER SERVICE SALT LAKE CITY UT
500 PM MDT MON JUL 27 2015

UTZ001>011-023>025-280000-

NORTHERN UTAH

CITY           SKY/WX    TMP DP  RH WIND       PRES   REMARKS
BRIGHAM CITY   PTSUNNY   72  41  32 N3        30.06R
HILL AFB       MOSUNNY   73  40  30 NW9G20    30.08R
LOGAN            N/A    N/A N/A N/A MISG      30.06S
OGDEN          SUNNY     74  42  31 NW8       30.06R
PROVO AIRPORT  NOT AVBL
SALT LAKE CITY MOSUNNY   76  42  29 N12       30.04S
VERNAL         SUNNY     86  27  11 W23G33    29.89R
WENDOVER       SUNNY     81  32  17 W18G30    30.03R
HEBER CITY     SUNNY     79  34  19 W15G21    30.05R
WEST JORDAN    SUNNY     75  39  27 NW17G25   30.06S

$$

UTZ012>022-026-027-280000-

SOUTHERN/CENTRAL UTAH

CITY           SKY/WX    TMP DP  RH WIND       PRES   REMARKS
BLANDING       SUNNY     89  30  12 SW10G23   30.10S
BRYCE CANYON   SUNNY     79  22  12 W17       30.19S
CEDAR CITY     SUNNY     87  18   8 SW12G24   30.03S
DELTA          SUNNY     83  30  14 N14G22    29.99S
HANKSVILLE     SUNNY     97  28   9 S15G30    29.87S HX  91
MILFORD        SUNNY     92  27   9 S23G32    29.94F
MOAB/CYNLANDS  SUNNY     95  25   8 SW20G28   29.84F
PRICE          SUNNY     87  27  11 W16G26    29.98S
ST GEORGE      CLEAR     97  34  11 W13       29.86F HX  91
KANAB          SUNNY     91  30  11 W13G24    30.03F

$$

REGIONAL REPORTS     COLORADO/ARIZONA

CITY           SKY/WX    TMP DP  RH WIND       PRES   REMARKS
CRAIG, CO      MOSUNNY   89  27  10 SW28G41   29.96R
GRAND JUNCTION SUNNY     94  26   9 W23G32    29.87S
RIFLE          MOSUNNY   93  33  12 SW20      29.92S
MONTROSE       MOSUNNY   90  34  13 SW17G30   30.01S
CORTEZ         SUNNY     89  30  12 SW15G26   30.04F
PAGE, AZ       SUNNY     97  25   7 SW10G21   29.90F HX  90
GRAND CANYON   SUNNY     85  19   9 W18G32    30.14F
KINGMAN        SUNNY     95  13   5 SW18      29.93F
FLAGSTAFF      SUNNY     80  43  26 SW16G24   30.20S

$$

REGIONAL REPORTS    NEVADA/IDAHO/WYOMING

CITY           SKY/WX    TMP DP  RH WIND       PRES   REMARKS
LAS VEGAS, NV  SUNNY    101  23   6 VRB3      29.75F HX  94
ELY            SUNNY     78  24  13 VRB7      30.12F
ELKO           SUNNY     75  30  19 W10G25    30.12R
POCATELLO, ID  MOSUNNY   69  36  29 W30G36    30.05R
BURLEY         SUNNY     68  35  29 W20G35    30.06R
EVANSTON, WY   SUNNY     67  32  27 W23G38    30.14R
ROCK SPRINGS   SUNNY     72  37  28 W25G35    30.04R
KEMMERER       SUNNY     63  32  31 W30G39    30.10S

$$


USA.gov is the U.S. government's official web portal to all federal, state and local government web resources and services.